sat.trackr.live / text

‹ back to catalog

STARLINK-35952

NORAD 66520 · 2025-265E

PAYLOAD ACTIVE UNKNOWN

§ Identity

Operator
Country
US
Launch date
2025-11-19
Launch site
AFETR
Launch vehicle
Mass (kg)
RCS (m²)

Purposes: comms

External: N2YO · Heavens-Above · Gunter

§ Orbital elements

Epoch: 2026-05-25T04:59:20.248800Z

Period
94.27 min
Inclination
43.0004°
Eccentricity
0.0001316
Mean motion
15.27572186 rev/d
Perigee alt
482.2 km
Apogee alt
484.0 km
Semi-major
6,861.2 km
B*
5.0992e-4
RAAN
206.0019°
Arg perigee
260.2000°
Mean anomaly
99.8703°
Rev number
2,881

§ Raw data

STARLINK-359521 66520U 25265E   26145.20787325  .00013793  00000+0  50992-3 0  99912 66520  43.0004 206.0019 0001316 260.2000  99.8703 15.27572186 28810

JSON: /api/v1/satellites/66520 · /tle

For live sub-satellite position, see the globe view (requires WebGL).

§ Visibility from observer

Set your observer location to see the next 7 days of passes ≥ 10°. The values pass through the URL so the page stays shareable.

No JS? Fill the form by hand. The geolocation button needs JavaScript.